Regional Weather Roundup
Issued by NWS Newport/Morehead, NC

Current Version | Previous Version | Graphics & Text | Print | Product List | Glossary Off
Versions: 1 2 3 4 5 6 7 8 9 10 11 12 13 14 15 16 17 18 19 20 21 22 23 24 25 26 27 28 29 30 31 32 33 34 35 36 37 38 39 40 41 42 43 44 45 46 47 48 49 50

000
ASUS42 KMHX 251125
RWRMHX
WEATHER ROUNDUP FOR EASTERN NORTH CAROLINA
NATIONAL WEATHER SERVICE NEWPORT/MOREHEAD CITY NC
600 AM EST SUN FEB 25 2018

NOTE: "FAIR" INDICATES FEW OR NO CLOUDS BELOW 12,000 FEET
WITH NO SIGNIFICANT WEATHER AND/OR OBSTRUCTIONS TO VISIBILITY

NCZ015>017-031-032-045>047-102-103-251200-
NORTH COAST

CITY           SKY/WX    TMP DP  RH WIND       PRES   REMARKS
EDENTON        MOCLDY    65  63  91 SW10      30.06F
ELIZABETH CITY FAIR      63  63 100 S12       30.06S
KITTY HAWK     FAIR     N/A N/A N/A SW8       30.07S
MANTEO         FAIR      63  61  92 SW15      30.08S

$$

NCZ045>047-081-094-103-104-251200-
CENTRAL COAST

CITY           SKY/WX    TMP DP  RH WIND       PRES   REMARKS
FRISCO         FAIR      65  63  93 SW10      30.11R

$$

NCZ095-097-098-100-101-251200-
SOUTHERN COAST

CITY           SKY/WX    TMP DP  RH WIND       PRES   REMARKS
BEAUFORT       FAIR      64  61  90 SW12      30.11F
CEDAR ISLAND   NOT AVBL
JACKSONVILLE   FAIR      66  63  90 S6        30.10R
PINEY ISLAND   NOT AVBL
WILMINGTON     FAIR      67  64  90 S9        30.11R


$$

NCZ011>013-027>030-043-044-078>080-089-090>093-098-251200-
COASTAL PLAIN

CITY           SKY/WX    TMP DP  RH WIND       PRES   REMARKS
AHOSKIE        MOCLDY    63  61  94 S7        30.04R
CLINTON        CLOUDY    65  65 100 S5        30.08F
ELIZABETHTOWN  NOT AVBL
GOLDSBORO      FAIR      65  63  91 SW12      30.05S
GREENVILLE     FAIR      64  63  94 SW10      30.08S
HAVELOCK       NOT AVBL
KENANSVILLE    CLOUDY    64  63  94 SW8       30.09S
KINSTON        MOCLDY    64  63  94 S12       30.08S
NEW BERN       FAIR      63  62  97 S7        30.10S
RICHLANDS      MOCLDY    62  62 100 S7        30.10S
ROCKY MOUNT    MOCLDY    65  61  87 SW12      30.05S
WASHINGTON     MOCLDY    64  63  94 S8        30.08S
WHITEVILLE     FAIR      64  64  97 S7        30.10S

$$

AMZ130-135-150-152-154-156-158-170-250-252-270-ANZ085-086-088-633-658-670-251200-
MARINE OBSERVATIONS

STATION/POSITION TIME  TEMP    WIND        PRES    WAVE   SWELL
                       AIR SEA DIR/SP/G            HT/PER HT/PER
                 (UTC) (F)     (DEG/KT/KT) (MB)    (FT/S) (FT/S)
CHESAPEAKE LIGHT NOT AVBL
64 E VA BEACH    1050   54 50  210/ 12/ 14 1018.3    4/ 9   3/ 9
DUCK             1100   64 46  210/ 11/ 15 1017.8
2 E DUCK         1100      47                N/A     2/10
OREGON INLET     1100   58 62  200/ 12/ 14 1018.8
13E OREGON INLT  1048      48                N/A     3/10   3/10
HATTERAS CG      1100   65 62  230/  9/ 12 1019.5
DIAMOND BUOY     1110   72     240/ 17/ 23 1019.9
CAPE LOOKOUT     1100          220/ 10/ 13 1020.2
BEAUFORT LAB     1100   64 59  210/  7/ 10 1019.9
30 SE NEW RVR IN 1008   71 70  220/ 14/ 17 1019.9
30 SE NEW RVR IN 1100      70                N/A     5/ 9   2/11
27 SE WRIGHTSVLE 1008   70 69  210/ 14/ 19 1020.1
5 SE WRIGHTSVLE  1108   62 57  210/ 10/ 14 1019.3
225 S CAPE HAT   1050   72 72  210/ 10/ 12 1023.4    5/ 9   5/ 9
41 SE CHARLESTON 1110   70     220/  8/ 10 1020.6

$$




USA.gov is the U.S. government's official web portal to all federal, state and local government web resources and services.